GOMX-1

Last updated on Fri Dec 19 2025 00:03:11 GMT+0000 (Coordinated Universal Time)

1 39430U 13066Q 25352.62484691 .00002182 00000+0 33864-3 0 9991 2 39430 97.6586 199.3821 0129295 297.5772 61.2350 14.68613565643401
UTC large
Height (km)
Speed (km/s)
/
Latitude / Longitude
Inclination (degrees)
Orbital Period (minutes)
Azimuth
Elevation
Range (km)
Doppler Factor

Next 0 passes for location: London (51.5072 / 0.1276)

Sorry there are no passes over London.